Reflectivity
-20 -20 -20 -20 -20 -20 -20 -20 -20 -20 -20 -20 -20 -20 -20 -20 -20 -20 -20 -20 -20 -20 -20 -20 -20 -20 -20 -20 -20 -20 -20 -20 -20 -20 -20 -20 -20 -20 -20 -20 -20 -20 -20 -20
-20 -20 -20 -20 -20 -20 -20 -20 -20 -20 -20 -20 -20 -20 -20 -20 -20 -20 -20 -20 -20 -20 -20 -20 -20 -20 -20 -20 -20 -20 -20 -20 -20 -20 -20 -20 -20 -20 -20 -20 -20 -20 -20 -20
-20 -20 -20 -20 -20 -20 -20 -20 -20 -20 -20 -20 -20 -20 -20 -20 -20 -20 -20 -20 -20 -20 -20 -20 -20 -20 -20 -20 -20 -20 -20 -20 -20 -20 -20 -20 -20 -20 -20 -20 -20 -20 -20 -20
-20 -20 -20 -20 -20 -20 -20 -20 -20 -20 -20 -20 -20 -20 -20 -20 -20 -20 -20 -20 -20 -20 -20 -20 -20 -20 -20 -20 -20 -20 -20 -20 -20 -20 -20 -20 -20 -20 -20 -20 -20 -20 -20 -20
-20 -20 -20 -20 -20 -20 -20 -20 -20 -20 -20 -20 -20 -20 -20 -20 -20 -20 -20 -20 -20 -20 -20 -20 -20 -20 -20 -20 -20 -20 -20 -20 -20 -20 -20 -20 -20 -20 -20 -20 -20 -20 -20 -20
-20 -20 -20 -20 -20 -20 -20 -20 -20 -20 -20 -20 -20 -20 -20 -20 -20 -20 -20 -20 -20 -20 -20 -20 -20 -20 -20 -20 -20 -20 -20 -20 -20 -20 -20 -20 -20 -20 -20 -20 -20 -20 -20 -20
-20 -20 -20 -20 -20 -20 -20 -20 -20 -20 -20 -20 -20 -20 -20 -20 -20 -20 -20 -20 -20 -20 -20 -20 -20 -20 -20 -20 -20 -20 -20 -20 -20 -20 -20 -20 -20 -20 -20 -20 -20 -20 -20 -20
-20 -20 -20 -20 -20 -20 -20 -20 -20 -20 -20 -20 -20 -20 -20 -20 -20 -20 -20 -20 -20 -20 -20 -20 -20 -20 -20 -20 -20 -20 -20 -20 -20 -20 -20 -20 -20 -20 -20 -20 -20 -20 -20 -20
-20 -20 -20 -20 -20 -20 -20 -20 -20 -20 -20 -20 -20 -20 -20 -20 -20 -20 -20 -20 -20 -20 -20 -20 -20 -20 -20 -20 -20 -20 -20 -20 -20 -20 -20 -20 -20 -20 -20 -20 -20 -20 -20 -20
-20 -20 -20 -20 -20 -20 -20 -20 -20 -20 -20 -20 -20 -20 -20 -20 -20 -20 -20 -20 -20 -20 -20 -20 -20 -20 -20 -20 -20 -20 -20 -20 -20 -20 -20 -20 -20 -20 -20 -20 -20 -20 -20 -20
-20 -20 -20 -20 -20 -20 -20 -20 -20 -20 -20 -20 -20 -20 -20 -20 -20 -20 -20 -20 -20 -20 -20 -20 -20 -20 -20 -20 -20 -20 -20 -20 -20 -20 -20 -20 -20 -20 -20 -20 -20 -20 -20 -20
-20 -20 -20 -20 -20 -20 -20 -20 -20 -20 -20 -20 -20 -20 -20 -20 -20 -20 -20 -20 -20 -20 -20 -20 -20 -20 -20 -20 -20 -20 -20 -20 -16 -14 -11 -20 -20 -20 -20 -20 -20 -20 -20 -20
-20 -20 -20 -20 -20 -20 -20 -20 -20 -20 -20 -20 -5 -16 -20 -20 -20 -20 -20 -20 -20 -20 -20 -20 -20 -20 -20 -20 -20 -20 -20 -20 12 8 10 -2 -20 -20 -20 -20 -20 -20 -20 -20
-20 -20 -20 -20 -20 -20 -20 -20 -20 -20 -20 -20 -18 -20 -20 -20 -20 -20 -20 -20 -20 -20 -20 -20 -20 -20 -20 -20 -20 -20 -20 -20 -15 -6 17 13 -19 -20 -20 -20 -20 -20 -20 -20
-20 -20 -20 -20 -20 -20 -20 -20 -20 -20 -20 -19 -20 -20 -20 -20 -20 -20 -20 -20 -20 -20 -20 -20 -20 -20 -20 -20 -20 -20 -20 -20 -20 -17 -5 17 1 -20 -20 -20 -20 -20 -20 -20
-20 -20 -20 -20 -20 -20 -20 -20 -20 -20 -20 -20 -20 -20 -20 -20 -20 -20 -20 -20 -20 -20 -20 -20 -20 -20 -20 -20 -20 -20 -2 -20 -13 -14 7 21 18 -16 -20 -7 -20 -20 -20 -20
-20 -20 -20 -20 -20 -20 -20 -20 -20 -20 -20 -20 -20 -20 -20 -20 -20 -20 -20 -20 -20 -18 1 -20 -20 -20 -20 -20 -20 -20 -20 -19 7 -1 15 28 23 33 20 -6 -20 -20 -20 -20
-20 -20 -20 -7 -18 -20 -20 -20 -20 -20 -20 -20 -20 -20 -20 -20 -20 -20 -20 -10 -5 -20 -20 -20 -20 -20 -20 -20 -20 -20 -20 -20 1 1 1 17 14 20 31 25 -9 -20 -20 -20
-20 -20 -20 2 -6 -20 -20 -20 -20 -20 -20 -20 -20 10 -20 -6 -12 -20 -16 -20 -20 -20 -20 -20 -20 -20 -20 -20 -20 -20 -20 -20 -4 -7 -9 11 8 8 20 31 20 -20 -15 -20
-20 -20 -1 5 13 2 -20 -20 -20 -20 -18 12 -8 12 -7 -20 13 -14 -20 -20 -20 -20 -20 -20 -20 -20 -20 -20 -20 -20 -20 -20 -20 -18 -20 9 2 7 12 24 32 -13 9 -8
-20 -20 -8 9 12 8 -20 -20 -18 3 -5 -20 -20 -20 0 18 16 12 -11 -20 -20 -20 -20 -20 -20 -20 -20 -20 -20 -20 -20 -11 -20 -20 -20 -1 -2 9 -3 27 30 -5 -11 8
-20 -9 -15 -20 -7 -15 -20 -20 -13 -11 -20 -8 -6 10 18 12 12 7 -20 -20 -20 -20 -20 -20 -20 -20 -20 -20 -20 -20 -20 -18 -20 -20 -20 -19 1 6 -11 17 16 18 -20 -8
-20 -20 -20 -19 -20 -20 -20 -20 -20 -20 18 -11 18 4 15 15 -9 -20 -20 -20 -20 -20 -20 -20 -20 -20 -20 -20 -20 -20 -20 -20 -20 -20 -20 -20 2 -15 -15 16 19 35 -20 -20
-20 -20 -20 -19 -20 -20 -20 -20 -20 2 10 -17 3 3 13 14 7 -18 -20 -20 -20 -20 -20 -20 -20 -20 -20 -20 -20 -20 -20 -20 -20 -20 -20 -20 -10 -16 -20 -20 5 38 -10 -20
-20 -20 -20 -20 -20 -20 -20 -20 -20 -13 -20 -20 -4 10 11 5 19 25 -12 -20 -20 -20 -20 -20 -20 -20 -20 -20 -20 -20 -20 8 -17 -20 -20 -20 -20 -14 -18 -20 7 32 2 -20
-20 -20 -16 -20 -20 -15 -20 -20 -9 -6 -6 -20 -7 0 -13 -15 9 -14 -20 -20 -20 -20 -20 -20 -20 -20 -20 -20 -20 -20 -20 10 -8 -3 -8 -19 -7 16 -2 5 24 36 5 -0
Wind_Speed
3 7 9 12 12 14 14 15 19 19 18 18 18 20 25 24 21 20 19 18 15 14 12 12 14 14 12 11 16 18 18 20 16 12 13 13 13 12 11 10 15 15 14 14
8 10 8 6 6 8 12 16 19 18 13 19 20 25 28 25 18 8 8 8 9 13 16 24 22 23 25 10 12 16 18 18 17 12 11 12 12 11 10 9 12 14 15 14
9 11 1 6 8 12 14 16 18 19 20 21 19 18 9 12 11 8 21 23 22 20 19 20 20 20 19 20 21 16 17 17 17 16 12 11 11 10 11 12 12 14 15 15
9 4 3 9 13 12 15 6 12 17 15 11 17 12 13 7 10 20 18 19 20 21 20 19 19 19 19 18 18 18 21 18 16 17 15 18 14 14 13 12 12 12 17 16
2 7 12 12 10 8 12 10 15 17 17 19 16 9 3 9 11 15 16 18 18 20 21 19 20 19 19 18 18 17 17 20 18 19 18 15 18 12 10 10 15 15 15 16
13 10 5 10 12 8 12 13 19 20 11 9 12 12 6 6 10 13 12 14 16 22 24 22 21 22 18 17 15 15 18 18 17 18 17 19 20 19 13 13 12 12 12 13
12 1 5 7 11 4 7 15 8 7 7 8 7 10 12 10 18 15 15 18 22 24 23 23 25 23 20 18 19 16 16 16 19 17 18 19 21 20 20 17 14 15 13 12
7 4 2 9 7 8 15 8 7 9 9 17 22 12 8 8 16 13 19 20 22 22 25 26 25 21 21 20 20 19 20 19 19 19 17 17 18 14 15 17 14 13 13 15
7 4 4 12 6 7 6 7 10 12 19 19 12 15 17 5 22 28 29 27 25 23 23 24 24 23 22 21 21 21 21 19 18 19 17 16 18 17 16 19 17 13 15 13
4 11 8 2 7 11 9 6 6 7 8 12 12 20 17 18 29 30 31 30 28 26 28 25 23 22 21 20 19 19 22 21 17 17 16 13 16 17 15 16 20 17 15 16
8 8 4 10 10 12 13 13 8 10 9 11 17 13 14 29 22 28 27 26 25 21 23 24 24 23 21 21 19 20 21 21 18 15 16 16 14 17 16 16 19 16 16 16
4 8 10 17 16 9 9 9 2 5 12 15 17 28 23 21 28 24 25 24 22 21 22 24 24 24 22 19 18 19 19 20 17 18 16 16 14 14 16 17 18 17 16 16
8 3 8 6 6 5 4 9 8 15 15 22 18 18 23 26 24 25 25 23 21 22 24 24 23 23 20 21 22 19 19 18 18 17 18 17 14 13 16 17 16 18 17 17
6 9 12 11 15 17 22 22 21 21 14 21 19 29 26 25 25 24 22 22 23 22 22 23 21 20 21 22 22 20 18 16 18 18 16 16 15 14 13 15 16 17 17 18
5 9 14 16 19 20 23 23 23 25 25 25 25 29 26 24 21 22 23 22 23 24 25 22 21 22 22 21 20 19 19 16 16 16 17 15 17 14 15 14 15 16 17 17
6 9 14 18 20 21 24 24 25 24 25 27 26 26 23 22 22 22 20 23 26 25 23 22 25 26 24 22 20 16 19 16 15 14 14 14 15 16 13 13 15 16 15 17
11 6 8 10 10 19 19 12 12 19 23 22 24 25 22 21 21 21 22 25 26 24 22 25 25 23 22 21 20 17 18 17 13 14 14 14 13 14 14 14 14 15 15 16
11 11 9 14 18 8 2 14 23 22 19 20 24 21 21 16 18 27 23 23 21 25 25 24 21 21 21 20 19 19 18 17 16 14 13 13 14 12 14 13 14 14 13 15
14 12 8 6 12 22 20 15 22 23 22 23 21 16 23 23 22 27 19 21 23 24 23 21 22 23 23 21 19 18 17 19 16 16 14 14 14 13 14 14 14 13 13 14
8 11 11 15 19 16 15 26 17 15 17 11 13 20 25 23 16 17 24 25 26 25 21 21 23 24 23 21 20 19 17 20 17 16 18 17 17 14 15 14 15 13 13 14
8 9 14 13 17 16 19 11 10 12 13 26 27 25 24 20 16 25 25 26 25 24 25 23 22 20 21 21 19 20 19 17 17 19 17 18 17 16 15 12 15 13 13 14
8 9 12 12 14 18 12 19 25 21 22 23 23 22 20 20 23 23 24 23 24 25 25 24 20 20 20 21 20 21 21 17 18 20 20 20 17 13 12 14 13 14 14 14
9 8 11 13 15 23 24 25 23 19 21 20 19 19 19 22 23 23 23 24 24 24 22 20 19 21 20 20 19 22 19 18 18 20 22 20 16 15 15 13 14 12 14 13
14 17 16 19 21 23 25 23 20 18 21 19 18 20 21 22 25 25 25 23 22 21 21 19 20 21 22 19 20 20 19 17 19 21 20 18 12 10 10 10 9 12 13 13
15 18 16 20 22 21 21 20 22 23 21 20 19 22 23 24 23 25 25 24 21 22 19 18 18 19 22 20 20 19 19 13 14 19 17 17 7 8 10 8 9 10 12 12
13 17 13 15 21 19 21 19 21 21 23 22 24 27 26 26 26 25 23 21 21 21 20 19 21 20 22 21 20 18 18 9 12 15 12 9 4 4 7 8 10 9 12 16
Wind_Direction
126 276 262 321 327 307 304 290 287 291 300 297 291 286 288 285 282 278 278 278 286 291 294 314 324 302 266 234 253 243 240 218 206 213 209 202 205 198 202 200 199 195 188 192
240 251 31 347 317 299 290 289 287 293 306 319 301 292 287 281 275 293 311 323 343 3 16 25 15 8 2 335 301 271 260 239 221 207 220 213 206 205 199 196 199 195 191 189
288 323 355 301 300 290 286 286 300 305 314 292 284 288 338 321 196 85 54 50 44 37 30 20 17 14 5 2 351 319 293 266 238 217 215 219 220 205 200 199 199 197 194 188
277 64 312 305 298 312 291 355 308 301 309 306 342 292 321 79 107 72 59 50 37 23 15 10 4 6 355 357 349 341 327 286 266 230 217 215 227 215 206 198 192 191 194 190
285 317 329 306 312 337 291 330 299 288 283 296 279 255 184 86 98 79 58 45 31 18 3 356 353 352 346 347 342 337 332 319 288 264 219 210 219 227 218 206 191 193 193 193
270 293 292 332 307 296 300 289 290 266 262 262 251 221 247 96 44 69 43 21 9 5 351 348 346 342 335 337 334 326 328 326 309 287 259 218 219 226 216 208 198 195 189 191
318 56 77 352 332 280 314 330 299 247 192 247 90 313 260 26 83 58 18 2 359 349 345 341 336 332 333 336 331 327 326 322 317 291 267 248 217 221 228 218 207 194 187 189
333 196 186 32 345 316 304 295 289 293 289 303 326 267 240 89 104 32 358 345 346 353 345 336 330 329 328 332 323 326 318 319 320 308 281 266 234 219 226 233 207 202 197 190
325 240 353 344 336 299 23 286 347 289 277 268 244 257 250 289 1 348 339 342 338 345 341 332 329 321 323 322 325 324 320 316 320 317 299 270 260 227 220 235 231 200 202 192
41 291 277 63 327 251 264 19 302 248 281 282 283 310 299 1 342 334 338 334 332 343 336 331 329 326 326 321 322 325 318 315 320 322 307 286 271 246 226 224 241 201 203 194
325 241 250 266 288 299 293 286 249 271 268 283 301 277 348 336 337 326 316 317 318 339 329 321 320 323 320 317 322 324 320 318 320 328 317 301 277 263 241 231 231 208 204 192
22 308 287 288 304 313 269 249 318 302 283 290 295 272 300 325 312 310 315 315 327 329 318 314 315 313 318 323 320 323 315 313 321 325 324 309 287 269 255 244 220 223 200 195
6 245 302 172 162 135 197 194 271 293 281 270 273 276 299 294 306 314 312 328 328 321 318 318 315 315 317 323 318 318 312 313 321 325 322 317 297 273 258 246 230 224 204 197
267 246 249 270 304 308 292 290 295 284 271 282 271 290 293 301 306 309 320 323 320 319 319 313 308 316 325 318 315 315 313 318 318 317 322 312 307 289 262 249 243 220 209 197
272 274 278 288 299 293 289 290 286 277 279 274 291 283 290 299 311 320 318 322 321 308 311 310 322 320 315 315 314 318 320 310 303 309 315 321 317 296 274 245 243 228 212 200
295 275 302 290 283 277 276 275 274 276 273 273 285 289 298 319 314 313 318 320 315 310 308 321 319 313 313 314 315 321 308 307 309 309 312 314 302 300 278 257 233 236 212 202
285 276 301 285 303 306 286 267 279 303 300 294 292 302 312 307 317 310 312 309 311 314 325 321 313 311 314 314 314 311 308 308 297 296 306 306 295 286 269 254 232 233 217 197
249 265 274 282 299 262 59 323 300 299 304 295 290 301 304 321 311 301 313 309 317 320 317 311 309 308 308 308 309 306 309 304 300 302 298 297 298 291 282 251 238 225 218 198
227 253 278 265 274 283 292 316 331 310 307 296 297 342 324 313 319 296 309 322 318 311 308 310 310 306 304 306 306 304 302 302 293 297 303 306 294 285 283 260 232 225 215 196
255 258 247 273 287 285 324 310 323 326 287 20 330 306 318 318 300 297 315 317 311 309 309 308 305 305 303 305 306 309 302 295 303 312 306 295 285 277 262 248 232 221 208 195
261 264 254 261 268 276 286 320 358 282 306 325 315 313 305 305 299 303 310 306 310 309 308 310 307 303 305 306 310 302 299 306 313 306 297 295 284 275 253 237 231 209 200 192
271 275 276 275 282 286 336 319 306 310 314 310 305 304 299 290 292 297 296 305 305 307 307 307 304 300 305 309 305 304 300 317 309 306 296 290 285 263 244 206 235 199 195 188
266 245 280 277 267 291 298 292 290 295 301 307 311 304 294 291 290 304 305 304 303 305 305 306 303 305 303 306 308 304 308 306 312 300 298 294 284 258 231 188 209 196 192 178
283 290 281 291 281 293 295 293 303 324 308 300 298 299 301 304 309 307 300 298 301 300 301 302 301 301 302 306 304 300 310 306 305 299 301 298 281 256 196 184 201 201 181 175
287 298 285 281 285 289 302 311 317 305 301 301 300 300 304 300 296 298 292 292 298 294 295 296 298 300 300 302 300 307 309 300 297 304 302 295 278 223 182 185 204 202 176 175
261 261 272 289 305 302 302 302 308 301 303 308 299 297 294 292 289 296 294 296 294 295 297 302 295 303 301 303 303 305 308 299 303 304 298 288 308 274 182 174 171 263 141 127